Powrót do katalogu

YUNYAO-1 37

AktywnyPogodaSSO
NORAD 62729·PAYLOAD·🇨🇳 China
Ta nazwa satelity nie została jeszcze potwierdzona przez oficjalne źródła.

Wystrzelony Jan 20, 2025 z Jiuquan Satellite Launch Center

Loading…

Następne Przeloty (najbliższe 24 godziny)

TLE

ŚwieżeSource: Space-Track

Epoka: Sep 14, 2026, 23:24 UTC

1 62729U 25013A   26257.97568354  .00037021  00000-0  92163-3 0  9993
2 62729  97.6396  80.2189 0007604 337.3382  22.7527 15.40140935 91751

Śledź YUNYAO-1 37 w czasie rzeczywistym z AllMySat

Download on the App Store